Date String (YYYY-MM-DD hh:mm:ss) UTC,Instrument flags,Ambient pressure (hPa),Sample flow (lpm),Bypass flow (lpm),Sample temperature (°C),Ambient temperature (°C),ASC tube jacket temperature (°C),LED temperature (°C),Box temperature (°C),Sample RH (%),Span deviation,Mass concentration (μg/m³),Mass concentration (μg/m³),Mass concentration (μg/m³)
DateTimeUTC,F1_M11,P_M11,Q1_M11,Q2_M11,T1_M11,T2_M11,T3_M11,T4_M11,T5_M11,U1_M11,ZSPAN_M11,X2_M11,X0_M11,X1_M11
2021-12-19 01:00:00,,0826.8,5.00,0.00,24.4,23.4,00.0,33.4,26.1,07.2,0002.2,0009.19,0019.24,0007.99
2021-12-19 01:01:00,,0826.7,5.01,0.00,24.3,23.3,00.0,33.3,26.1,07.2,0002.6,0009.10,0018.91,0007.92
2021-12-19 01:02:00,,0826.8,4.99,0.00,24.3,23.3,00.0,33.3,26.1,07.2,0002.5,0008.97,0017.58,0007.86
2021-12-19 01:03:00,,0826.7,5.01,0.00,24.3,23.3,00.0,33.3,26.1,07.2,0002.1,0008.85,0016.56,0007.78
2021-12-19 01:04:00,,0826.7,4.99,0.00,24.3,23.3,00.0,33.3,26.1,07.2,0002.1,0008.74,0015.71,0007.73
2021-12-19 01:05:00,,0826.7,5.00,0.00,24.3,23.3,00.0,33.3,26.1,07.3,0003.1,0008.72,0015.40,0007.70
2021-12-19 01:06:00,,0826.7,5.00,0.00,24.3,23.3,00.0,33.3,26.1,07.3,0003.1,0008.72,0015.40,0007.70
2021-12-19 01:07:00,,0826.7,5.00,0.00,24.3,23.3,00.0,33.3,26.1,07.3,0002.7,0008.71,0015.53,0007.69
2021-12-19 01:08:00,,0826.6,5.00,0.00,24.3,23.3,00.0,33.3,26.1,07.3,0002.5,0008.73,0015.02,0007.72
2021-12-19 01:09:00,,0826.6,5.01,0.00,24.3,23.3,00.0,33.3,26.1,07.3,0001.8,0008.72,0014.99,0007.73
2021-12-19 01:10:00,,0826.6,5.00,0.00,24.3,23.3,00.0,33.3,26.1,07.3,0002.2,0008.71,0015.46,0007.76
2021-12-19 01:11:00,,0826.6,5.00,0.00,24.3,23.3,00.0,33.3,26.1,07.3,0002.8,0008.74,0017.28,0007.81
2021-12-19 01:12:00,,0826.6,5.00,0.00,24.3,23.3,00.0,33.3,26.1,07.3,0003.0,0008.79,0018.29,0007.84
2021-12-19 01:13:00,,0826.5,5.00,0.00,24.3,23.3,00.0,33.2,26.1,07.3,0003.7,0008.82,0018.72,0007.86
2021-12-19 01:14:00,,0826.5,5.00,0.00,24.2,23.3,00.0,33.2,26.0,07.3,0004.4,0008.88,0019.10,0007.87
2021-12-19 01:15:00,,0826.5,5.01,0.00,24.2,23.2,00.0,33.2,26.0,07.3,0004.6,0008.92,0019.61,0007.89
2021-12-19 01:16:00,,0826.5,4.99,0.00,24.2,23.2,00.0,33.2,26.0,07.3,0003.9,0008.91,0019.80,0007.89
2021-12-19 01:17:00,,0826.5,5.01,0.00,24.2,23.2,00.0,33.2,26.0,07.3,0004.0,0008.87,0019.94,0007.88
2021-12-19 01:18:00,,0826.6,4.98,0.00,24.2,23.2,00.0,33.2,26.0,07.3,0004.5,0008.85,0019.75,0007.87
2021-12-19 01:19:00,,0826.5,5.02,0.00,24.2,23.2,00.0,33.2,26.0,07.3,0005.0,0008.86,0019.53,0007.84
2021-12-19 01:20:00,,0826.5,4.99,0.00,24.2,23.2,00.0,33.2,26.0,07.3,0005.0,0008.82,0019.44,0007.81
2021-12-19 01:21:00,,0826.5,5.01,0.00,24.2,23.2,00.0,33.2,26.0,07.3,0005.7,0008.77,0018.98,0007.78
2021-12-19 01:22:00,,0826.5,5.00,0.00,24.2,23.2,00.0,33.2,26.0,07.3,0005.5,0008.72,0017.62,0007.72
2021-12-19 01:23:00,,0826.5,5.00,0.00,24.2,23.2,00.0,33.2,26.0,07.3,0005.2,0008.68,0016.40,0007.67
2021-12-19 01:24:00,,0826.5,5.00,0.00,24.2,23.2,00.0,33.2,26.0,07.3,0004.3,0008.62,0015.94,0007.60
2021-12-19 01:25:00,,0826.5,4.99,0.00,24.2,23.1,00.0,33.1,26.0,07.3,0003.7,0008.54,0016.53,0007.53
2021-12-19 01:26:00,,0826.5,5.00,0.00,24.2,23.1,00.0,33.1,25.9,07.3,0003.6,0008.49,0016.24,0007.47
2021-12-19 01:27:00,,0826.5,5.00,0.00,24.1,23.1,00.0,33.1,25.9,07.3,0003.8,0008.45,0016.33,0007.43
2021-12-19 01:28:00,,0826.5,4.98,0.00,24.1,23.1,00.0,33.1,25.9,07.3,0000.5,0008.49,0016.32,0007.41
2021-12-19 01:29:00,,0826.5,5.00,0.00,24.1,23.1,00.0,33.1,25.9,07.3,0000.0,0008.46,0016.13,0007.38
2021-12-19 01:30:00,,0826.6,5.00,0.00,24.1,23.1,00.0,33.1,25.9,07.3,0000.0,0008.44,0016.11,0007.35
2021-12-19 01:31:00,,0826.5,5.00,0.00,24.1,23.1,00.0,33.1,25.9,07.3,0000.0,0008.45,0016.05,0007.33
2021-12-19 01:32:00,,0826.6,4.99,0.00,24.1,23.1,00.0,33.1,25.9,07.3,0000.9,0008.48,0016.95,0007.32
2021-12-19 01:33:00,,0826.5,5.01,0.00,24.1,23.1,00.0,33.1,25.9,07.3,0001.9,0008.46,0017.60,0007.29
2021-12-19 01:34:00,,0826.5,4.99,0.00,24.1,23.1,00.0,33.1,25.9,07.3,0001.9,0008.41,0017.66,0007.27
2021-12-19 01:35:00,,0826.5,5.01,0.00,24.0,23.1,00.0,33.1,25.9,07.3,0001.8,0008.36,0017.74,0007.24
2021-12-19 01:36:00,,0826.5,4.99,0.00,24.0,23.0,00.0,33.0,25.8,07.3,0002.0,0008.33,0017.00,0007.21
2021-12-19 01:37:00,,0826.5,5.00,0.00,24.0,23.0,00.0,33.0,25.8,07.3,0001.4,0008.28,0016.96,0007.17
2021-12-19 01:38:00,,0826.4,5.00,0.00,24.0,23.0,00.0,33.0,25.8,07.3,0000.8,0008.24,0017.90,0007.13
2021-12-19 01:39:00,,0826.4,5.02,0.00,24.0,23.0,00.0,33.0,25.8,07.4,0000.8,0008.15,0017.80,0007.06
2021-12-19 01:40:00,,0826.4,4.98,0.00,24.0,23.0,00.0,33.0,25.8,07.4,0000.6,0008.19,0018.78,0007.02
2021-12-19 01:41:00,,0826.4,5.00,0.00,24.0,23.0,00.0,33.0,25.8,07.4,0001.0,0008.14,0019.39,0006.96
2021-12-19 01:42:00,,0826.5,5.00,0.00,24.0,23.0,00.0,33.0,25.7,07.4,0001.1,0008.08,0020.36,0006.91
2021-12-19 01:43:00,,0826.5,5.01,0.00,24.0,23.0,00.0,33.0,25.7,07.4,0001.6,0008.02,0020.00,0006.87
2021-12-19 01:44:00,,0826.4,4.99,0.00,24.0,23.0,00.0,33.0,25.7,07.4,0001.5,0008.02,0019.05,0006.85
2021-12-19 01:45:00,,0826.4,5.01,0.00,24.0,23.0,00.0,33.0,25.7,07.4,0001.5,0008.03,0018.95,0006.84
2021-12-19 01:46:00,,0826.3,4.99,0.00,24.0,23.0,00.0,33.0,25.7,07.4,0001.8,0008.02,0019.13,0006.83
2021-12-19 01:47:00,,0826.3,5.01,0.00,24.0,23.0,00.0,33.0,25.7,07.4,0001.6,0008.14,0019.28,0006.87
2021-12-19 01:48:00,,0826.4,5.00,0.00,23.9,23.0,00.0,32.9,25.7,07.4,0000.8,0008.22,0019.39,0006.93
2021-12-19 01:49:00,,0826.4,5.00,0.00,23.9,22.9,00.0,32.9,25.7,07.4,0000.0,0008.30,0019.60,0006.97
2021-12-19 01:50:00,,0826.2,4.99,0.00,23.9,22.9,00.0,32.9,25.6,07.4,0001.0,0008.41,0019.65,0007.05
2021-12-19 01:51:00,,0826.2,5.02,0.00,23.9,22.9,00.0,32.9,25.6,07.4,0001.2,0008.46,0019.03,0007.11
2021-12-19 01:52:00,,0826.2,4.98,0.00,23.9,22.9,00.0,32.9,25.6,07.4,0002.0,0008.45,0018.82,0007.17
2021-12-19 01:53:00,,0826.2,5.00,0.00,23.9,22.9,00.0,32.9,25.6,07.4,0000.5,0008.52,0019.13,0007.21
2021-12-19 01:54:00,,0826.2,5.00,0.00,23.9,22.9,00.0,32.9,25.6,07.4,0001.2,0008.61,0020.01,0007.25
2021-12-19 01:55:00,,0826.3,5.00,0.00,23.9,22.9,00.0,32.9,25.6,07.4,0001.0,0008.63,0020.29,0007.29
2021-12-19 01:56:00,,0826.3,5.00,0.00,23.8,22.9,00.0,32.9,25.6,07.4,0001.0,0008.66,0020.03,0007.34
2021-12-19 01:57:00,,0826.2,4.99,0.00,23.8,22.9,00.0,32.8,25.5,07.4,0001.1,0008.74,0020.08,0007.41
2021-12-19 01:58:00,,0826.2,5.01,0.00,23.8,22.9,00.0,32.8,25.6,07.4,0000.8,0008.78,0020.37,0007.45
2021-12-19 01:59:00,,0826.2,5.00,0.00,23.8,22.9,00.0,32.8,25.6,07.4,0000.1,0008.79,0020.38,0007.49
